[[{"header":{"parameterUnit":"m.s-1","parameterCategory":1,"la1":30.2991,"la2":30.254,"lo1":-89.0895,"lo2":-89.0444,"dy":0.0017,"dx":0.0017,"nx":28,"ny":28,"refTime":"2025-08-02T21:00:00:Z","depth":0,"parameterNumber":2,"parameterNumberName":"U-component_of_WINDS"},"data":[0,0,0,0,0,0,0,0,0,0,0,0,0,0,0,0,0,0,0,0,0,0,0,0,0,0,0,0,0,0,0,0,0,0,0,0,0,0,0,0,0,0,0,0,0,0,0,0,0,0,0,0,0,0,0,0,0,0,0.6636,0.6638,0,0.6813,0.6815,0.6817,0.6893,0.6893,0.6893,0.6892,0.7067,0.7072,0.7077,0,0,0,0,0,0,0,0,0,0,0,0,0,0.636,0.6365,0.6636,0.6638,0.664,0.6813,0.6815,0.6818,0.6893,0.6893,0.6892,0.6892,0.7065,0.7071,0.7077,0,0,0,0,0,0,0,0,0,0,0,0,0,0.6503,0.6366,0.6636,0.6699,0.6707,0.6812,0.6815,0.6818,0.6893,0.6893,0.6892,0.6892,0.7064,0.7071,0.7078,0.7132,0,0,0.7101,0.7104,0,0,0,0,0,0,0,0,0.6494,0.6513,0.6688,0.6695,0.6703,0.6831,0.6782,0.6923,0.6893,0.6822,0.6892,0.6892,0.6988,0.7002,0.7036,0.714,0.7148,0.7101,0.7106,0.7109,0.7111,0,0,0,0,0,0,0,0.6484,0.6505,0.6706,0.669,0.67,0.6718,0.6737,0.6809,0.6905,0.6828,0.6834,0.6855,0.6993,0.7029,0.7041,0.715,0.7101,0.7108,0.7112,0.7115,0.7312,0.7313,0,0,0,0,0,0,0.6465,0.6497,0.67,0.6711,0.6596,0.6723,0.6745,0.679,0.6905,0.6922,0.6855,0.6857,0.7016,0.7032,0.7047,0.712,0.7109,0.7116,0.712,0.7311,0.7312,0.7313,0,0,0,0,0,0,0.6459,0.6482,0.6693,0.6606,0.6634,0.6728,0.6778,0.6794,0.683,0.6925,0.6942,0.6874,0.7016,0.7037,0.7112,0.7127,0.7119,0.7126,0.731,0.7311,0.7313,0.7265,0,0,0,0,0,0,0.645,0.648,0.6501,0.6606,0.6639,0.6755,0.6779,0.6798,0.6843,0.6849,0.6947,0.6963,0.7018,0.71,0.7119,0.7137,0.7132,0.7309,0.7311,0.7312,0.7265,0.7264,0.7263,0,0,0,0,0,0.644,0.6479,0.6502,0.6526,0.6668,0.6756,0.6775,0.6838,0.6844,0.6867,0.6929,0.696,0.7123,0.7107,0.7129,0.7149,0.7308,0.731,0.7312,0.7266,0.7264,0.7263,0,0,0,0,0,0,0.637,0.6493,0.6521,0.6594,0.6665,0.6769,0.6799,0.6834,0.6902,0.6904,0.6979,0.7,0.7069,0.7117,0.7098,0.721,0.7218,0.7224,0.7176,0.7175,0.7174,0.716,0.7138,0,0,0,0,0,0.6364,0.6426,0.653,0.6585,0.662,0.6703,0.6744,0.6788,0.6862,0.6892,0.6959,0.7029,0.7096,0.7138,0.7205,0.7273,0.7297,0.7298,0.7297,0.7296,0.73,0.7342,0.7344,0.7319,0.7319,0.7319,0,0,0.6349,0.6425,0.6459,0.6573,0.6633,0.6696,0.6727,0.6791,0.6839,0.6901,0.6977,0.7029,0.7112,0.7185,0.722,0.7226,0.7313,0.7298,0.7296,0.7301,0.7344,0.7346,0.7348,0.732,0.732,0.732,0,0,0.6357,0.642,0.6474,0.6535,0.6626,0.6682,0.6695,0.6796,0.6834,0.6912,0.6961,0.7018,0.7131,0.719,0.7234,0.7269,0.7301,0.7289,0.7282,0.7323,0.7325,0.7327,0.734,0.7344,0.7293,0.7293,0.7293,0,0.6327,0.6425,0.6496,0.656,0.6609,0.6672,0.6728,0.6782,0.6889,0.6922,0.6929,0.7076,0.7136,0.7224,0.7234,0.7267,0.7285,0.7277,0.7319,0.7322,0.7325,0.7338,0.7343,0.7291,0.7291,0.7291,0.7292,0,0.6385,0.6453,0.6485,0.6592,0.6645,0.6703,0.6783,0.6828,0.6869,0.6924,0.7004,0.708,0.7165,0.7189,0.7227,0.7284,0.7286,0.7305,0.7315,0.7324,0.7338,0.7344,0.7288,0.7289,0.7289,0.729,0,0,0.6349,0.6498,0.6509,0.6559,0.6667,0.672,0.6783,0.6869,0.6906,0.6979,0.7034,0.7131,0.7151,0.7202,0.7248,0.7283,0.7308,0.7299,0.7302,0.7298,0.7377,0.7361,0.7366,0.7331,0.7332,0.7333,0.737,0,0.6371,0.6487,0.6556,0.6644,0.6708,0.6772,0.6826,0.6898,0.6953,0.7015,0.7075,0.7143,0.7164,0.7195,0.7233,0.7297,0.7325,0.7295,0.7381,0.7384,0.7358,0.7373,0.7356,0.7386,0.7376,0.7377,0.7377,0,0.6411,0.6487,0.6582,0.6687,0.6716,0.6764,0.685,0.6909,0.6993,0.703,0.7089,0.7137,0.7205,0.7212,0.7308,0.7286,0.7326,0.7363,0.7366,0.7375,0.738,0.7382,0.7398,0.7402,0.7386,0.7386,0.7385,0,0.6375,0.6501,0.6576,0.6617,0.674,0.6773,0.6825,0.6909,0.6958,0.7033,0.7065,0.7146,0.719,0.7252,0.732,0.7318,0.741,0.7421,0.7443,0.7441,0.7457,0.7455,0.7478,0.7484,0.7484,0.7484,0.7484,0,0.6392,0.6448,0.6562,0.6607,0.6673,0.6752,0.6814,0.6871,0.6946,0.7004,0.7063,0.7115,0.7203,0.7266,0.732,0.7392,0.7411,0.7443,0.7457,0.7438,0.7434,0.7464,0.7463,0.7485,0.7485,0.7485,0.7484,0,0.6362,0.6441,0.6527,0.6639,0.6668,0.6711,0.6807,0.6853,0.6913,0.6986,0.7007,0.71,0.7178,0.7254,0.7357,0.7394,0.7466,0.7483,0.7438,0.7445,0.7462,0.7459,0.7505,0.7515,0.7514,0.7513,0.7513,0,0.6367,0.6413,0.6531,0.6575,0.6628,0.6698,0.6749,0.6829,0.688,0.6981,0.7016,0.7099,0.717,0.7292,0.7368,0.7449,0.7469,0.748,0.7481,0.7461,0.7469,0.7466,0.7471,0.7477,0.7477,0.7476,0.7476,0,0.6368,0.6406,0.6479,0.6566,0.6627,0.6699,0.6773,0.6805,0.6899,0.6953,0.7036,0.7091,0.72,0.7282,0.7373,0.7426,0.7467,0.7476,0.7485,0.7465,0.7437,0.7453,0.7433,0.7473,0.7474,0.7474,0.7474,0.7474,0.6356,0.6401,0.6492,0.6572,0.6637,0.6706,0.6756,0.6824,0.6895,0.6992,0.7035,0.7118,0.7204,0.733,0.7383,0.745,0.7459,0.7472,0.7475,0.7477,0.7473,0.7428,0.7466,0.7466,0.7467,0.7467,0.7467,0,0.636,0.6424,0.6497,0.66,0.6663,0.67,0.6785,0.6835,0.6909,0.6986,0.7057,0.7152,0.7234,0.7318,0.7404,0.7441,0.7462,0.7461,0.7458,0.747,0.7459,0.7443,0.7443,0.7443,0.7443,0.7443,0.7443,0.7443,0.637,0.6448,0.6497,0.6608,0.6671,0.6755,0.6801,0.6865,0.6928,0.7033,0.7102,0.7158,0.7239,0.7333,0.7409,0.7432,0.7461,0.7454,0.7482,0.7469,0.7471,0.7472,0.7457,0.746,0.746,0.7488,0.7488,0.7488]},{"header":{"parameterUnit":"m.s-1","parameterCategory":1,"la1":30.2991,"la2":30.254,"lo1":-89.0895,"lo2":-89.0444,"dy":0.0017,"dx":0.0017,"nx":28,"ny":28,"refTime":"2025-08-02T21:00:00:Z","depth":0,"parameterNumber":3,"parameterNumberName":"V-component_of_WINDS"},"data":[0,0,0,0,0,0,0,0,0,0,0,0,0,0,0,0,0,0,0,0,0,0,0,0,0,0,0,0,0,0,0,0,0,0,0,0,0,0,0,0,0,0,0,0,0,0,0,0,0,0,0,0,0,0,0,0,0,0,-1.371,-1.3708,0,-1.3531,-1.3529,-1.3527,-1.3432,-1.3432,-1.3431,-1.3431,-1.3243,-1.3238,-1.3234,0,0,0,0,0,0,0,0,0,0,0,0,0,-1.396,-1.3956,-1.371,-1.3708,-1.3705,-1.3532,-1.3529,-1.3527,-1.3432,-1.3432,-1.3431,-1.3431,-1.3245,-1.3239,-1.3233,0,0,0,0,0,0,0,0,0,0,0,0,0,-1.3823,-1.3955,-1.371,-1.3637,-1.3629,-1.3532,-1.3529,-1.3526,-1.3432,-1.3432,-1.3431,-1.3431,-1.3247,-1.3239,-1.3232,-1.3193,0,0,-1.321,-1.3207,0,0,0,0,0,0,0,0,-1.3831,-1.3814,-1.365,-1.3642,-1.3633,-1.3504,-1.3548,-1.3414,-1.3432,-1.3506,-1.3431,-1.3431,-1.333,-1.3315,-1.3282,-1.3184,-1.3176,-1.3209,-1.3205,-1.3202,-1.32,0,0,0,0,0,0,0,-1.3841,-1.3821,-1.3639,-1.3648,-1.3637,-1.361,-1.3591,-1.3522,-1.3421,-1.35,-1.3493,-1.3473,-1.3325,-1.329,-1.3277,-1.3173,-1.321,-1.3203,-1.3199,-1.3196,-1.3028,-1.3028,0,0,0,0,0,0,-1.3863,-1.383,-1.3645,-1.3634,-1.3733,-1.3606,-1.3584,-1.3545,-1.3422,-1.3403,-1.3473,-1.3469,-1.3302,-1.3286,-1.327,-1.3213,-1.3202,-1.3195,-1.3191,-1.3028,-1.3028,-1.3028,0,0,0,0,0,0,-1.3869,-1.3847,-1.3652,-1.373,-1.3703,-1.3602,-1.3559,-1.3542,-1.3507,-1.3402,-1.3383,-1.3457,-1.3301,-1.3281,-1.3212,-1.3205,-1.3192,-1.3185,-1.3028,-1.3028,-1.3028,-1.31,0,0,0,0,0,0,-1.3876,-1.385,-1.3836,-1.373,-1.3699,-1.3599,-1.3559,-1.3538,-1.3495,-1.3488,-1.3381,-1.3363,-1.33,-1.3223,-1.3205,-1.3195,-1.318,-1.3028,-1.3028,-1.3028,-1.3097,-1.3102,-1.3106,0,0,0,0,0,-1.3886,-1.3863,-1.3836,-1.3814,-1.368,-1.3599,-1.3581,-1.351,-1.3495,-1.3478,-1.341,-1.3367,-1.3209,-1.3217,-1.3195,-1.3183,-1.3028,-1.3028,-1.3028,-1.3096,-1.3101,-1.3106,0,0,0,0,0,0,-1.397,-1.3848,-1.3817,-1.376,-1.3691,-1.3583,-1.3561,-1.3519,-1.3451,-1.3447,-1.3359,-1.3335,-1.3274,-1.3222,-1.3233,-1.3136,-1.3114,-1.3109,-1.3173,-1.3177,-1.3181,-1.3194,-1.3174,0,0,0,0,0,-1.3983,-1.393,-1.3825,-1.3785,-1.3752,-1.3663,-1.3625,-1.3575,-1.3499,-1.3469,-1.3396,-1.3322,-1.3255,-1.3213,-1.3147,-1.3089,-1.3062,-1.307,-1.3074,-1.3078,-1.3075,-1.3036,-1.3037,-1.3027,-1.3027,-1.3027,0,0,-1.4007,-1.3934,-1.3906,-1.38,-1.3741,-1.3684,-1.3639,-1.3582,-1.3538,-1.346,-1.339,-1.3334,-1.3245,-1.3182,-1.315,-1.3136,-1.3071,-1.3078,-1.3082,-1.3076,-1.3036,-1.3037,-1.3038,-1.3027,-1.3027,-1.3027,0,0,-1.4023,-1.3964,-1.3922,-1.3863,-1.3774,-1.3714,-1.3704,-1.3602,-1.3562,-1.3491,-1.343,-1.3375,-1.3263,-1.3201,-1.3155,-1.3144,-1.3099,-1.3124,-1.3146,-1.3109,-1.311,-1.311,-1.3103,-1.3102,-1.3121,-1.3121,-1.3122,0,-1.4064,-1.398,-1.3906,-1.3852,-1.3805,-1.3732,-1.3687,-1.3633,-1.3526,-1.3494,-1.348,-1.3335,-1.3271,-1.3189,-1.3186,-1.3152,-1.3135,-1.3136,-1.3116,-1.3116,-1.3115,-1.3107,-1.3105,-1.3125,-1.3124,-1.3124,-1.3124,0,-1.4033,-1.3975,-1.3951,-1.3851,-1.3801,-1.3752,-1.3668,-1.3626,-1.358,-1.3521,-1.3447,-1.3367,-1.328,-1.3257,-1.3212,-1.3168,-1.3162,-1.3134,-1.3109,-1.312,-1.3111,-1.3108,-1.313,-1.3129,-1.3128,-1.3127,0,0,-1.4098,-1.3955,-1.3948,-1.3899,-1.3794,-1.3746,-1.3692,-1.3608,-1.3573,-1.3501,-1.345,-1.3356,-1.3327,-1.3275,-1.3222,-1.319,-1.3182,-1.3164,-1.3161,-1.3168,-1.3124,-1.3145,-1.3143,-1.3152,-1.3151,-1.315,-1.313,0,-1.4097,-1.3999,-1.3928,-1.3856,-1.3799,-1.3727,-1.3679,-1.3607,-1.3549,-1.349,-1.3425,-1.3358,-1.3328,-1.3295,-1.3261,-1.319,-1.3171,-1.3191,-1.3101,-1.3099,-1.3124,-1.3138,-1.3161,-1.3146,-1.3127,-1.3126,-1.3126,0,-1.4083,-1.4013,-1.3935,-1.3833,-1.3806,-1.3765,-1.368,-1.3626,-1.3541,-1.3501,-1.3442,-1.3386,-1.3322,-1.3304,-1.3212,-1.3227,-1.3185,-1.3145,-1.3142,-1.313,-1.3112,-1.3124,-1.314,-1.3137,-1.312,-1.312,-1.3121,0,-1.4135,-1.4021,-1.3959,-1.392,-1.38,-1.3772,-1.372,-1.3635,-1.3588,-1.3514,-1.3482,-1.3401,-1.3356,-1.3293,-1.3215,-1.321,-1.313,-1.3106,-1.3092,-1.3093,-1.3077,-1.3079,-1.3085,-1.3054,-1.3054,-1.3054,-1.3054,0,-1.4139,-1.4094,-1.398,-1.3942,-1.3887,-1.3805,-1.3752,-1.3694,-1.3619,-1.3565,-1.3498,-1.3448,-1.335,-1.3287,-1.3226,-1.3157,-1.3138,-1.3101,-1.3085,-1.3106,-1.3111,-1.3077,-1.3075,-1.3054,-1.3054,-1.3054,-1.3054,0,-1.4188,-1.4111,-1.4038,-1.3929,-1.3901,-1.3865,-1.377,-1.3728,-1.3666,-1.3599,-1.3578,-1.3479,-1.3402,-1.3319,-1.3213,-1.3172,-1.3105,-1.3083,-1.3134,-1.3124,-1.3114,-1.3115,-1.3097,-1.3088,-1.3066,-1.3066,-1.3067,0,-1.4196,-1.4159,-1.4046,-1.4006,-1.3956,-1.3893,-1.3844,-1.3761,-1.3713,-1.3612,-1.3581,-1.3499,-1.3429,-1.3307,-1.3225,-1.3142,-1.3117,-1.3116,-1.3104,-1.3125,-1.3113,-1.3116,-1.311,-1.312,-1.312,-1.3121,-1.3121,0,-1.4216,-1.4179,-1.4113,-1.4033,-1.3977,-1.391,-1.3839,-1.3809,-1.3711,-1.366,-1.3581,-1.3526,-1.3418,-1.3335,-1.3243,-1.3185,-1.3136,-1.3126,-1.3117,-1.3138,-1.3168,-1.3149,-1.3142,-1.3126,-1.3126,-1.3125,-1.3125,-1.3125,-1.4242,-1.4204,-1.4119,-1.4046,-1.3985,-1.392,-1.3874,-1.3806,-1.3739,-1.3645,-1.3599,-1.3519,-1.3431,-1.3302,-1.3245,-1.3179,-1.3164,-1.3153,-1.315,-1.3148,-1.3152,-1.318,-1.3162,-1.3162,-1.3162,-1.3161,-1.3161,0,-1.4256,-1.4197,-1.4132,-1.4035,-1.3978,-1.3938,-1.3857,-1.381,-1.3741,-1.3664,-1.3596,-1.3503,-1.3422,-1.3332,-1.3245,-1.3209,-1.3183,-1.3188,-1.3189,-1.3176,-1.3172,-1.3187,-1.321,-1.321,-1.321,-1.321,-1.321,-1.321,-1.4257,-1.4191,-1.4143,-1.4044,-1.3984,-1.3906,-1.3863,-1.3801,-1.3739,-1.3638,-1.3571,-1.3514,-1.343,-1.3336,-1.3258,-1.3234,-1.3203,-1.3215,-1.3183,-1.3181,-1.3177,-1.3173,-1.3186,-1.3209,-1.3209,-1.3192,-1.3192,-1.3192]}]]